[[{"header":{"parameterUnit":"m.s-1","parameterCategory":1,"la1":30.2991,"la2":30.254,"lo1":-89.0895,"lo2":-89.0444,"dy":0.0017,"dx":0.0017,"nx":28,"ny":28,"refTime":"2026-02-13T03:00:00:Z","depth":0,"parameterNumber":2,"parameterNumberName":"U-component_of_WINDS"},"data":[0,0,0,0,0,0,0,0,0,0,0,0,0,0,0,0,0,0,0,0,0,0,0,0,0,0,0,0,0,0,0,0,0,0,0,0,0,0,0,0,0,0,0,0,0,0,0,0,0,0,0,0,0,0,0,0,0,0,-0.4918,-0.4918,0,-0.4917,-0.4917,-0.4917,-0.4922,-0.4922,-0.4922,-0.4922,-0.4921,-0.492,-0.492,0,0,0,0,0,0,0,0,0,0,0,0,0,-0.4924,-0.4924,-0.4918,-0.4918,-0.4918,-0.4917,-0.4917,-0.4916,-0.4922,-0.4922,-0.4922,-0.4922,-0.4921,-0.492,-0.492,0,0,0,0,0,0,0,0,0,0,0,0,0,-0.4922,-0.4924,-0.4918,-0.492,-0.492,-0.4917,-0.4917,-0.4916,-0.4922,-0.4922,-0.4922,-0.4922,-0.4921,-0.4921,-0.492,-0.4914,0,0,-0.4919,-0.4919,0,0,0,0,0,0,0,0,-0.4922,-0.4922,-0.492,-0.492,-0.492,-0.492,-0.4918,-0.4916,-0.4922,-0.4921,-0.4922,-0.4923,-0.492,-0.492,-0.4919,-0.4914,-0.4914,-0.4919,-0.4919,-0.4919,-0.4919,0,0,0,0,0,0,0,-0.4922,-0.4922,-0.4917,-0.492,-0.492,-0.4921,-0.4921,-0.4918,-0.4919,-0.4921,-0.4922,-0.4922,-0.492,-0.4919,-0.4919,-0.4914,-0.4919,-0.4919,-0.4919,-0.4919,-0.4903,-0.4903,0,0,0,0,0,0,-0.4922,-0.4922,-0.4917,-0.4917,-0.4922,-0.4921,-0.4921,-0.492,-0.4919,-0.492,-0.4921,-0.4922,-0.492,-0.4919,-0.4919,-0.4912,-0.4919,-0.4919,-0.4919,-0.4904,-0.4903,-0.4903,0,0,0,0,0,0,-0.4922,-0.4921,-0.4917,-0.492,-0.4919,-0.4921,-0.4919,-0.4919,-0.4919,-0.4919,-0.492,-0.492,-0.492,-0.4919,-0.4915,-0.4912,-0.4919,-0.4918,-0.4904,-0.4904,-0.4903,-0.4898,0,0,0,0,0,0,-0.4922,-0.4921,-0.4919,-0.4919,-0.4919,-0.4913,-0.4919,-0.4919,-0.4918,-0.4919,-0.4918,-0.4919,-0.492,-0.4916,-0.4915,-0.4912,-0.4918,-0.4904,-0.4904,-0.4903,-0.4898,-0.4897,-0.4896,0,0,0,0,0,-0.4922,-0.4917,-0.4919,-0.4918,-0.4916,-0.4913,-0.4913,-0.4915,-0.4918,-0.4916,-0.4916,-0.4919,-0.4912,-0.4915,-0.4914,-0.4911,-0.4904,-0.4904,-0.4903,-0.4899,-0.4897,-0.4896,0,0,0,0,0,0,-0.4916,-0.4917,-0.4919,-0.4914,-0.4914,-0.4914,-0.4911,-0.4914,-0.4912,-0.4913,-0.4915,-0.4915,-0.491,-0.491,-0.4913,-0.4905,-0.4909,-0.4908,-0.4905,-0.4904,-0.4903,-0.4904,-0.4918,0,0,0,0,0,-0.4914,-0.4912,-0.4913,-0.4909,-0.4908,-0.491,-0.4909,-0.491,-0.491,-0.4909,-0.491,-0.4909,-0.4907,-0.4906,-0.4904,-0.4898,-0.4898,-0.4895,-0.4894,-0.4894,-0.4893,-0.4891,-0.489,-0.4901,-0.4901,-0.4901,0,0,-0.491,-0.4911,-0.4909,-0.4907,-0.4907,-0.4905,-0.491,-0.4907,-0.4905,-0.4909,-0.4905,-0.4905,-0.4905,-0.49,-0.4898,-0.49,-0.489,-0.4893,-0.4892,-0.4892,-0.489,-0.4889,-0.4888,-0.4901,-0.4901,-0.4901,0,0,-0.4902,-0.4902,-0.4898,-0.4898,-0.4898,-0.4899,-0.4898,-0.4898,-0.4899,-0.4895,-0.4898,-0.4896,-0.4892,-0.4892,-0.4891,-0.4883,-0.4885,-0.4882,-0.4878,-0.4875,-0.4874,-0.4873,-0.4871,-0.487,-0.4882,-0.4882,-0.4882,0,-0.4897,-0.4894,-0.4896,-0.4894,-0.4893,-0.4896,-0.4893,-0.4892,-0.4891,-0.4891,-0.4893,-0.4889,-0.4888,-0.4884,-0.4882,-0.4881,-0.488,-0.4882,-0.4874,-0.4873,-0.4873,-0.487,-0.4869,-0.4881,-0.4881,-0.4881,-0.4881,0,-0.4888,-0.4886,-0.4883,-0.4883,-0.4881,-0.4878,-0.488,-0.4879,-0.488,-0.4881,-0.4877,-0.4877,-0.4876,-0.4874,-0.4876,-0.487,-0.4871,-0.4874,-0.4878,-0.4871,-0.4869,-0.4868,-0.4881,-0.4881,-0.4881,-0.4881,0,0,-0.4876,-0.4877,-0.4876,-0.4876,-0.4876,-0.4874,-0.4871,-0.487,-0.4869,-0.4868,-0.4866,-0.4863,-0.4865,-0.4864,-0.4866,-0.4863,-0.4858,-0.4866,-0.4866,-0.4865,-0.4852,-0.4851,-0.485,-0.4859,-0.4859,-0.4859,-0.4852,0,-0.4869,-0.4864,-0.4866,-0.4861,-0.486,-0.4863,-0.486,-0.486,-0.4861,-0.4859,-0.486,-0.4858,-0.4861,-0.486,-0.4858,-0.4859,-0.4855,-0.4859,-0.4857,-0.4857,-0.4858,-0.4848,-0.4847,-0.4841,-0.4851,-0.4851,-0.4851,0,-0.486,-0.4859,-0.4854,-0.4855,-0.4854,-0.4852,-0.4851,-0.4849,-0.4849,-0.4849,-0.4849,-0.4851,-0.4848,-0.4851,-0.4848,-0.485,-0.485,-0.485,-0.485,-0.485,-0.4854,-0.4849,-0.4839,-0.4838,-0.485,-0.485,-0.485,0,-0.4852,-0.485,-0.4847,-0.4846,-0.4847,-0.4845,-0.4846,-0.4846,-0.4845,-0.4844,-0.4843,-0.4842,-0.4841,-0.484,-0.4842,-0.4844,-0.4838,-0.4842,-0.4839,-0.4839,-0.4838,-0.4838,-0.4828,-0.4836,-0.4836,-0.4836,-0.4836,0,-0.4844,-0.4841,-0.4844,-0.4842,-0.4838,-0.4841,-0.4837,-0.4838,-0.4838,-0.4836,-0.4838,-0.4837,-0.4839,-0.4837,-0.4838,-0.4835,-0.4835,-0.4835,-0.4836,-0.4835,-0.4835,-0.4835,-0.4836,-0.4836,-0.4836,-0.4836,-0.4836,0,-0.4835,-0.4837,-0.4834,-0.4835,-0.4835,-0.4833,-0.4833,-0.4832,-0.4832,-0.483,-0.483,-0.4831,-0.4829,-0.4831,-0.4829,-0.483,-0.4826,-0.4827,-0.4826,-0.4827,-0.4824,-0.4824,-0.4814,-0.4813,-0.4822,-0.4821,-0.4821,0,-0.483,-0.4828,-0.4829,-0.4828,-0.4828,-0.4827,-0.4826,-0.4828,-0.4827,-0.4827,-0.4825,-0.4824,-0.4823,-0.482,-0.4821,-0.482,-0.4821,-0.4817,-0.4821,-0.482,-0.4821,-0.4822,-0.4822,-0.4817,-0.4816,-0.4816,-0.4816,0,-0.4822,-0.4822,-0.4821,-0.4821,-0.482,-0.4819,-0.4819,-0.4818,-0.482,-0.4819,-0.4817,-0.4817,-0.4815,-0.4814,-0.4813,-0.4813,-0.4815,-0.4815,-0.4814,-0.4814,-0.4814,-0.4815,-0.4825,-0.4815,-0.4816,-0.4816,-0.4816,-0.4816,-0.4815,-0.4813,-0.4814,-0.4813,-0.4813,-0.4812,-0.4811,-0.4812,-0.481,-0.481,-0.4811,-0.4809,-0.4809,-0.4808,-0.4808,-0.4806,-0.4808,-0.4807,-0.4807,-0.4806,-0.4806,-0.4814,-0.4806,-0.4806,-0.4806,-0.4806,-0.4806,0,-0.4807,-0.4807,-0.4806,-0.4806,-0.4805,-0.4807,-0.4806,-0.4806,-0.4804,-0.4804,-0.4803,-0.4801,-0.48,-0.4801,-0.48,-0.4799,-0.48,-0.4798,-0.4799,-0.4799,-0.4805,-0.4806,-0.4798,-0.4798,-0.4798,-0.4798,-0.4798,-0.4798,-0.4802,-0.48,-0.4801,-0.4798,-0.4799,-0.4797,-0.4797,-0.4797,-0.4797,-0.4795,-0.4794,-0.4794,-0.4795,-0.4794,-0.4793,-0.4793,-0.4793,-0.4791,-0.4792,-0.4797,-0.4798,-0.4799,-0.48,-0.4791,-0.4791,-0.4786,-0.4786,-0.4786]},{"header":{"parameterUnit":"m.s-1","parameterCategory":1,"la1":30.2991,"la2":30.254,"lo1":-89.0895,"lo2":-89.0444,"dy":0.0017,"dx":0.0017,"nx":28,"ny":28,"refTime":"2026-02-13T03:00:00:Z","depth":0,"parameterNumber":3,"parameterNumberName":"V-component_of_WINDS"},"data":[0,0,0,0,0,0,0,0,0,0,0,0,0,0,0,0,0,0,0,0,0,0,0,0,0,0,0,0,0,0,0,0,0,0,0,0,0,0,0,0,0,0,0,0,0,0,0,0,0,0,0,0,0,0,0,0,0,0,0.2732,0.2732,0,0.2746,0.2746,0.2746,0.2784,0.2785,0.2786,0.2786,0.2799,0.2799,0.2798,0,0,0,0,0,0,0,0,0,0,0,0,0,0.2738,0.2738,0.2732,0.2732,0.2733,0.2746,0.2746,0.2746,0.2784,0.2785,0.2786,0.2787,0.2799,0.2799,0.2798,0,0,0,0,0,0,0,0,0,0,0,0,0,0.2742,0.2738,0.2732,0.2753,0.2755,0.2746,0.2746,0.2746,0.2784,0.2785,0.2786,0.2787,0.2799,0.2799,0.2798,0.277,0,0,0.2796,0.2796,0,0,0,0,0,0,0,0,0.2742,0.2742,0.275,0.2752,0.2754,0.2764,0.2753,0.2754,0.2783,0.2773,0.2786,0.2788,0.2786,0.2787,0.2787,0.277,0.2771,0.2796,0.2796,0.2795,0.2795,0,0,0,0,0,0,0,0.2741,0.2741,0.2738,0.275,0.2752,0.2761,0.2763,0.2753,0.2772,0.2774,0.2776,0.2778,0.2788,0.2787,0.2787,0.2771,0.2796,0.2796,0.2795,0.2795,0.2731,0.2729,0,0,0,0,0,0,0.2738,0.2741,0.2737,0.2738,0.2751,0.276,0.2762,0.276,0.2773,0.2776,0.2777,0.2779,0.2788,0.2788,0.2788,0.2754,0.2795,0.2795,0.2794,0.2732,0.273,0.2729,0,0,0,0,0,0,0.2738,0.2738,0.2737,0.274,0.2741,0.2759,0.2756,0.2759,0.2759,0.2775,0.2778,0.2772,0.2789,0.2789,0.2774,0.2755,0.2795,0.2794,0.2733,0.2731,0.2729,0.2687,0,0,0,0,0,0,0.2738,0.2737,0.2727,0.274,0.274,0.2722,0.2755,0.2759,0.2758,0.2762,0.2772,0.2775,0.279,0.2774,0.2773,0.2755,0.2793,0.2735,0.2732,0.273,0.269,0.2684,0.2678,0,0,0,0,0,0.2738,0.2714,0.2726,0.2725,0.2728,0.2721,0.2722,0.2739,0.2756,0.2745,0.2756,0.2775,0.2758,0.2773,0.2771,0.2753,0.2736,0.2733,0.273,0.2693,0.2685,0.2679,0,0,0,0,0,0,0.2698,0.2716,0.273,0.2709,0.2713,0.2728,0.2714,0.2731,0.273,0.2733,0.2756,0.2758,0.2739,0.2745,0.2761,0.2725,0.275,0.2747,0.2722,0.2715,0.2709,0.2707,0.2793,0,0,0,0,0,0.2687,0.2681,0.2697,0.2677,0.2679,0.2696,0.2694,0.2707,0.2713,0.2714,0.2724,0.2727,0.2723,0.272,0.2717,0.2692,0.2694,0.2679,0.2673,0.2668,0.2664,0.265,0.2643,0.2719,0.2719,0.2719,0,0,0.2664,0.2673,0.2667,0.2669,0.2674,0.2666,0.2697,0.2688,0.2682,0.2713,0.2699,0.2706,0.2712,0.2691,0.2683,0.2695,0.2644,0.2664,0.266,0.2659,0.2646,0.2639,0.2633,0.2717,0.2717,0.2718,0,0,0.2617,0.2624,0.2608,0.2612,0.2619,0.2631,0.2627,0.2639,0.2645,0.2631,0.2654,0.2647,0.264,0.2642,0.2643,0.2598,0.2614,0.2596,0.2565,0.2551,0.2545,0.254,0.2522,0.2516,0.2593,0.2593,0.2593,0,0.2587,0.2576,0.2597,0.2586,0.2586,0.2614,0.2597,0.2601,0.2606,0.2605,0.262,0.261,0.2616,0.2596,0.2585,0.2585,0.258,0.2594,0.2544,0.2539,0.2535,0.2518,0.2511,0.259,0.2591,0.2591,0.2591,0,0.2538,0.253,0.2517,0.2521,0.252,0.2506,0.2524,0.252,0.2534,0.2544,0.2529,0.2538,0.2537,0.2533,0.2547,0.2515,0.2523,0.2541,0.2565,0.2525,0.2509,0.2503,0.2587,0.2588,0.2588,0.2589,0,0,0.2465,0.2482,0.2476,0.2478,0.2488,0.2482,0.247,0.2469,0.2464,0.2468,0.2457,0.245,0.2466,0.2467,0.2481,0.2469,0.2431,0.2489,0.2489,0.2476,0.2395,0.238,0.2372,0.2443,0.2442,0.2441,0.2394,0,0.2419,0.2398,0.2417,0.2392,0.2385,0.2412,0.2401,0.2406,0.2415,0.241,0.2421,0.2414,0.2438,0.2438,0.2428,0.2438,0.2415,0.2442,0.2432,0.2431,0.2427,0.2364,0.2348,0.2303,0.2388,0.2387,0.2386,0,0.2363,0.2363,0.2338,0.2349,0.2347,0.2336,0.2336,0.2332,0.2338,0.2345,0.2346,0.2363,0.2351,0.2377,0.236,0.2378,0.2376,0.238,0.2379,0.2377,0.2405,0.2359,0.2289,0.2282,0.2377,0.2378,0.2379,0,0.2309,0.2304,0.2288,0.2289,0.2302,0.2294,0.2299,0.2307,0.2305,0.2305,0.2304,0.2303,0.2302,0.2301,0.2317,0.2335,0.2297,0.2325,0.2302,0.2302,0.2291,0.2291,0.2219,0.2293,0.2293,0.2293,0.2293,0,0.2255,0.2238,0.2264,0.2254,0.2235,0.2257,0.2238,0.2246,0.2252,0.2244,0.2268,0.2259,0.2283,0.2277,0.229,0.2273,0.2273,0.2278,0.2281,0.2274,0.2273,0.2271,0.2274,0.2291,0.2292,0.2292,0.2293,0,0.2192,0.2209,0.2192,0.2207,0.221,0.2195,0.2207,0.2198,0.221,0.2199,0.2197,0.2215,0.2209,0.2226,0.2222,0.2231,0.2206,0.2215,0.2204,0.2206,0.2181,0.2183,0.2103,0.2093,0.2175,0.2175,0.2174,0,0.2155,0.2142,0.2155,0.2151,0.2155,0.2149,0.2147,0.2168,0.2165,0.2171,0.2161,0.2157,0.2155,0.2143,0.2156,0.2153,0.2161,0.2134,0.2161,0.2154,0.2158,0.2158,0.2156,0.2127,0.2126,0.2125,0.2125,0,0.2087,0.2096,0.2093,0.2092,0.2089,0.209,0.2092,0.2087,0.211,0.2106,0.21,0.2098,0.2094,0.2089,0.209,0.2095,0.2112,0.2116,0.211,0.2102,0.2095,0.2097,0.2186,0.2117,0.2118,0.2119,0.2119,0.2119,0.2035,0.2024,0.2032,0.2027,0.2031,0.2032,0.2024,0.2035,0.203,0.2029,0.2042,0.2033,0.2039,0.2041,0.2044,0.2037,0.205,0.2042,0.204,0.2037,0.2032,0.2098,0.2038,0.2038,0.2038,0.2038,0.2039,0,0.1967,0.1973,0.1968,0.1971,0.1967,0.1986,0.1989,0.1984,0.1976,0.198,0.1978,0.197,0.1966,0.1978,0.1975,0.1967,0.1975,0.1965,0.1965,0.1966,0.2022,0.2026,0.1959,0.1959,0.1959,0.1959,0.1959,0.1959,0.1931,0.1914,0.1924,0.1909,0.1916,0.1907,0.1907,0.1908,0.1912,0.1903,0.1899,0.1907,0.1915,0.1912,0.1909,0.1913,0.191,0.1896,0.1903,0.1954,0.1962,0.1969,0.1973,0.1896,0.1896,0.1847,0.1846,0.1846]}]]